| time (UTC) | temp F | wind direction | speed knots | gust knots | rain 1hr in | rain 24hr in | rain mn in | humidity % | barometer mb |
| 20260906221541 | 76 | 0 | 0.0 | 1.7 | 0.00 | 0.01 | 0.00 | 39 | 1024.0 |
| 20260906220038 | 76 | 0 | 0.0 | 4.3 | 0.00 | 0.01 | 0.00 | 39 | 1024.2 |
| 20260906214535 | 76 | 0 | 0.0 | 7.0 | 0.00 | 0.01 | 0.00 | 39 | 1024.3 |
| 20260906213034 | 77 | 0 | 0.0 | 10.4 | 0.00 | 0.01 | 0.00 | 37 | 1024.4 |
| 20260906211538 | 78 | 0 | 0.0 | 13.0 | 0.00 | 0.01 | 0.00 | 35 | 1024.4 |
| 20260906210036 | 79 | 0 | 0.0 | 5.2 | 0.00 | 0.01 | 0.00 | 34 | 1024.6 |
| 20260906204552 | 79 | 0 | 0.9 | 12.2 | 0.00 | 0.01 | 0.00 | 34 | 1024.7 |
| 20260906203038 | 79 | 0 | 0.0 | 7.8 | 0.00 | 0.01 | 0.00 | 32 | 1024.6 |
| 20260906201535 | 79 | 0 | 0.0 | 8.7 | 0.00 | 0.01 | 0.00 | 32 | 1024.7 |
| 20260906200036 | 79 | 0 | 0.0 | 11.3 | 0.00 | 0.01 | 0.00 | 33 | 1024.8 |
| 20260906194534 | 78 | 0 | 0.0 | 12.2 | 0.00 | 0.01 | 0.00 | 34 | 1024.8 |
| 20260906193036 | 78 | 0 | 0.9 | 8.7 | 0.00 | 0.01 | 0.00 | 35 | 1025.2 |
| 20260906191537 | 78 | 55 | 0.9 | 13.0 | 0.00 | 0.01 | 0.00 | 33 | 1025.4 |
| 20260906190041 | 77 | 0 | 0.9 | 7.8 | 0.00 | 0.01 | 0.00 | 37 | 1025.6 |
| 20260906184537 | 78 | 0 | 0.9 | 10.4 | 0.00 | 0.01 | 0.00 | 32 | 1025.8 |
| 20260906183034 | 77 | 0 | 0.0 | 13.0 | 0.00 | 0.01 | 0.00 | 35 | 1026.0 |
| 20260906181544 | 77 | 0 | 1.7 | 7.8 | 0.00 | 0.01 | 0.00 | 35 | 1026.0 |
| 20260906180048 | 77 | 0 | 0.9 | 6.1 | 0.00 | 0.01 | 0.00 | 37 | 1026.3 |
| 20260906174538 | 78 | 163 | 2.6 | 13.0 | 0.00 | 0.01 | 0.00 | 34 | 1026.4 |
| 20260906173035 | 78 | 0 | 0.0 | 10.4 | 0.00 | 0.01 | 0.00 | 34 | 1026.4 |
| 20260906171547 | 78 | 118 | 0.0 | 6.1 | 0.00 | 0.01 | 0.00 | 33 | 1026.5 |
| 20260906170043 | 78 | 0 | 0.0 | 0.0 | 0.00 | 0.01 | 0.00 | 34 | 1026.6 |
| 20260906164536 | 78 | 0 | 0.0 | 7.0 | 0.00 | 0.01 | 0.00 | 33 | 1026.5 |
| 20260906163038 | 77 | 0 | 0.0 | 1.7 | 0.00 | 0.01 | 0.00 | 35 | 1026.7 |
| 20260906161537 | 76 | 0 | 0.0 | 7.8 | 0.00 | 0.01 | 0.00 | 35 | 1026.8 |
| 20260906160037 | 76 | 0 | 0.0 | 4.3 | 0.00 | 0.01 | 0.00 | 36 | 1026.5 |
| 20260906154537 | 74 | 0 | 0.0 | 6.1 | 0.00 | 0.01 | 0.00 | 39 | 1026.5 |
| 20260906153042 | 72 | 0 | 0.0 | 5.2 | 0.00 | 0.01 | 0.00 | 42 | 1026.5 |
| 20260906151537 | 66 | 0 | 0.0 | 0.0 | 0.00 | 0.01 | 0.00 | 55 | 1026.6 |
| 20260906150039 | 64 | 0 | 0.0 | 0.0 | 0.00 | 0.01 | 0.00 | 60 | 1026.8 |
| 20260906144542 | 61 | 0 | 0.0 | 0.0 | 0.00 | 0.01 | 0.00 | 63 | 1026.8 |
| 20260906143045 | 59 | 0 | 0.0 | 0.0 | 0.00 | 0.01 | 0.00 | 64 | 1026.8 |
| 20260906141542 | 58 | 0 | 0.0 | 0.0 | 0.00 | 0.01 | 0.00 | 69 | 1026.7 |
| 20260906140039 | 55 | 0 | 0.0 | 0.0 | 0.00 | 0.01 | 0.00 | 71 | 1026.8 |
| 20260906134535 | 52 | 0 | 0.0 | 0.0 | 0.00 | 0.01 | 0.00 | 75 | 1026.9 |
| 20260906133103 | 50 | 0 | 0.0 | 0.0 | 0.00 | 0.01 | 0.00 | 75 | 1026.8 |
| 20260906131538 | 50 | 0 | 0.0 | 0.0 | 0.00 | 0.01 | 0.00 | 74 | 1026.8 |
| 20260906130036 | 50 | 0 | 0.0 | 0.0 | 0.00 | 0.01 | 0.00 | 74 | 1026.6 |
| 20260906124535 | 50 | 0 | 0.0 | 0.0 | 0.00 | 0.01 | 0.00 | 74 | 1026.5 |
| 20260906123037 | 50 | 0 | 0.0 | 0.0 | 0.00 | 0.01 | 0.00 | 73 | 1026.2 |
| 20260906121542 | 50 | 0 | 0.0 | 0.0 | 0.00 | 0.01 | 0.00 | 73 | 1026.4 |
| 20260906120038 | 50 | 0 | 0.0 | 0.0 | 0.00 | 0.01 | 0.00 | 74 | 1026.3 |
| 20260906114544 | 50 | 0 | 0.0 | 0.0 | 0.00 | 0.01 | 0.00 | 73 | 1026.3 |
| 20260906113035 | 50 | 0 | 0.0 | 0.0 | 0.00 | 0.01 | 0.00 | 73 | 1026.5 |
| 20260906111543 | 50 | 0 | 0.0 | 0.0 | 0.00 | 0.01 | 0.00 | 72 | 1026.5 |
| 20260906110037 | 51 | 0 | 0.0 | 0.0 | 0.00 | 0.01 | 0.00 | 72 | 1026.5 |
| 20260906104535 | 51 | 0 | 0.0 | 0.0 | 0.00 | 0.01 | 0.00 | 72 | 1026.5 |
| 20260906103038 | 51 | 0 | 0.0 | 0.0 | 0.00 | 0.01 | 0.00 | 71 | 1026.6 |
| 20260906101536 | 51 | 0 | 0.0 | 0.0 | 0.00 | 0.01 | 0.00 | 70 | 1026.5 |
| 20260906100039 | 52 | 0 | 0.0 | 0.0 | 0.00 | 0.01 | 0.00 | 70 | 1026.5 |
| 20260906094536 | 52 | 0 | 0.0 | 0.0 | 0.00 | 0.01 | 0.00 | 69 | 1026.6 |
| 20260906093041 | 52 | 0 | 0.0 | 0.0 | 0.00 | 0.01 | 0.00 | 69 | 1026.6 |
| 20260906091536 | 53 | 0 | 0.0 | 0.0 | 0.00 | 0.01 | 0.00 | 68 | 1026.5 |
| 20260906090035 | 54 | 0 | 0.0 | 0.0 | 0.00 | 0.01 | 0.00 | 67 | 1026.4 |
| 20260906084536 | 54 | 0 | 0.0 | 0.0 | 0.00 | 0.01 | 0.00 | 67 | 1026.4 |
| 20260906083037 | 55 | 0 | 0.0 | 0.0 | 0.00 | 0.01 | 0.00 | 66 | 1026.5 |
| 20260906081535 | 56 | 0 | 0.0 | 0.0 | 0.00 | 0.01 | 0.00 | 65 | 1026.7 |
| 20260906080037 | 57 | 0 | 0.0 | 0.0 | 0.00 | 0.01 | 0.00 | 64 | 1026.8 |
| 20260906074536 | 57 | 0 | 0.0 | 0.0 | 0.00 | 0.01 | 0.00 | 64 | 1026.8 |
| 20260906073038 | 58 | 0 | 0.0 | 0.0 | 0.00 | 0.01 | 0.00 | 64 | 1026.9 |
| 20260906071537 | 59 | 0 | 0.0 | 0.0 | 0.00 | 0.01 | 0.00 | 63 | 1026.6 |
| 20260906070036 | 59 | 0 | 0.0 | 0.0 | 0.00 | 0.01 | 0.00 | 63 | 1026.5 |
| 20260906064534 | 59 | 0 | 0.0 | 0.0 | 0.00 | 0.01 | 0.00 | 63 | 1026.6 |
| 20260906063036 | 60 | 0 | 0.0 | 0.0 | 0.00 | 0.01 | 0.00 | 63 | 1027.0 |
| 20260906061537 | 60 | 0 | 0.0 | 0.0 | 0.00 | 0.01 | 0.00 | 62 | 1027.1 |
| 20260906060035 | 60 | 0 | 0.0 | 0.0 | 0.00 | 0.01 | 0.00 | 63 | 1027.0 |
| 20260906054552 | 60 | 0 | 0.0 | 0.0 | 0.00 | 0.01 | 0.01 | 62 | 1027.0 |
| 20260906053037 | 60 | 0 | 0.0 | 0.0 | 0.00 | 0.01 | 0.01 | 62 | 1027.1 |
| 20260906051551 | 60 | 0 | 0.0 | 0.0 | 0.00 | 0.01 | 0.01 | 61 | 1026.9 |
| 20260906050044 | 61 | 0 | 0.0 | 0.0 | 0.00 | 0.01 | 0.01 | 61 | 1026.9 |
| 20260906044538 | 61 | 0 | 0.0 | 0.0 | 0.00 | 0.01 | 0.01 | 58 | 1026.9 |
| 20260906043036 | 61 | 0 | 0.0 | 0.0 | 0.00 | 0.01 | 0.01 | 56 | 1026.9 |
| 20260906041536 | 61 | 0 | 0.0 | 0.0 | 0.00 | 0.01 | 0.01 | 56 | 1026.5 |
| 20260906040108 | 61 | 0 | 0.0 | 0.0 | 0.00 | 0.01 | 0.01 | 55 | 1026.4 |
| 20260906034534 | 62 | 0 | 0.0 | 0.0 | 0.00 | 0.01 | 0.01 | 54 | 1026.3 |
| 20260906033051 | 62 | 0 | 0.0 | 1.7 | 0.00 | 0.01 | 0.01 | 55 | 1026.3 |
| 20260906031535 | 62 | 0 | 0.0 | 0.0 | 0.00 | 0.01 | 0.01 | 56 | 1026.4 |
| 20260906030035 | 63 | 0 | 0.0 | 0.0 | 0.00 | 0.01 | 0.01 | 57 | 1026.3 |
| 20260906024538 | 63 | 0 | 0.0 | 0.0 | 0.00 | 0.01 | 0.01 | 56 | 1026.2 |
| 20260906023036 | 64 | 0 | 0.0 | 0.0 | 0.00 | 0.01 | 0.01 | 56 | 1026.0 |
| 20260906021536 | 64 | 0 | 0.0 | 0.0 | 0.00 | 0.01 | 0.01 | 55 | 1025.9 |
| 20260906020036 | 65 | 0 | 0.0 | 0.0 | 0.00 | 0.01 | 0.01 | 54 | 1025.9 |
| 20260906014535 | 65 | 0 | 0.0 | 0.0 | 0.00 | 0.01 | 0.01 | 55 | 1026.0 |
| 20260906013035 | 66 | 0 | 0.0 | 0.0 | 0.00 | 0.01 | 0.01 | 52 | 1026.1 |
| 20260906011535 | 66 | 0 | 0.0 | 0.0 | 0.00 | 0.01 | 0.01 | 55 | 1026.1 |
| 20260906010039 | 67 | 0 | 0.0 | 0.0 | 0.00 | 0.01 | 0.01 | 55 | 1026.1 |
| 20260906004537 | 68 | 0 | 0.0 | 0.0 | 0.00 | 0.01 | 0.01 | 57 | 1026.4 |
| 20260906003037 | 69 | 0 | 0.0 | 0.0 | 0.00 | 0.01 | 0.01 | 54 | 1026.9 |
| 20260906001534 | 70 | 0 | 0.0 | 0.0 | 0.00 | 0.01 | 0.01 | 56 | 1026.7 |
| 20260906000037 | 72 | 0 | 0.0 | 0.9 | 0.00 | 0.01 | 0.01 | 42 | 1026.8 |
| 20260905234537 | 73 | 0 | 0.0 | 0.0 | 0.00 | 0.01 | 0.01 | 43 | 1026.1 |
| 20260905233034 | 72 | 0 | 0.0 | 0.0 | 0.00 | 0.01 | 0.01 | 44 | 1025.9 |
| 20260905231537 | 71 | 0 | 0.0 | 0.0 | 0.01 | 0.01 | 0.01 | 49 | 1026.0 |
| 20260905230037 | 71 | 0 | 0.0 | 2.6 | 0.01 | 0.01 | 0.01 | 48 | 1025.8 |
| 20260905224607 | 69 | 0 | 0.0 | 6.1 | 0.01 | 0.01 | 0.01 | 51 | 1025.7 |
| 20260905223035 | 73 | 0 | 0.0 | 7.0 | 0.01 | 0.01 | 0.01 | 40 | 1026.3 |